Location: Chenereilles
(45.4866°N, 4.0790°E)
Time: 00:54:25
(UTC+00:00)

USA 215 - Pass Details

Date: 12 November 2019
Orbit: 1101 x 1107 km, 123.0° (Epoch: 02 December)

Event Time Altitude Azimuth Distance (km) Brightness Sun altitude
Exits shadow 18:21:37 38° 98° (E) 1,612 3.6 -21.9°
Maximum altitude 18:24:11 66° 31° (NNE) 1,198 3.2 -22.3°
Drops below altitude 10° 18:30:38 10° 311° (NW) 2,964 6.1 -23.5°
Sets 18:33:08 0° 309° (NW) 3,924 6.9 -23.9°
